Date String (YYYY-MM-DD hh:mm:ss) UTC,Instrument flags,Ambient pressure (hPa),Sample flow (lpm),Bypass flow (lpm),Sample temperature (°C),Ambient temperature (°C),ASC tube jacket temperature (°C),LED temperature (°C),Box temperature (°C),Sample RH (%),Span deviation,Mass concentration (μg/m³),Mass concentration (μg/m³),Mass concentration (μg/m³)
DateTimeUTC,F1_M11,P_M11,Q1_M11,Q2_M11,T1_M11,T2_M11,T3_M11,T4_M11,T5_M11,U1_M11,ZSPAN_M11,X0_M11,X2_M11,X1_M11
2022-09-30 19:00:00,,0825.6,4.99,0.00,29.5,28.1,00.0,38.2,31.4,18.6,0000.0,0005.10,0002.21,0001.86
2022-09-30 19:01:00,,0825.6,5.01,0.00,29.6,28.3,00.0,38.2,31.5,18.9,0000.0,0004.64,0002.19,0001.85
2022-09-30 19:02:00,,0825.6,4.99,0.00,29.6,28.4,00.0,38.2,31.5,18.7,0000.0,0004.35,0002.26,0001.90
2022-09-30 19:03:00,,0825.6,5.00,0.00,29.6,28.5,00.0,38.2,31.6,18.9,0000.0,0004.08,0002.39,0001.96
2022-09-30 19:04:00,,0825.5,5.00,0.00,29.7,28.7,00.0,38.2,31.6,18.4,0000.0,0004.52,0002.47,0002.03
2022-09-30 19:05:00,,0825.5,5.00,0.00,29.7,28.5,00.0,38.3,31.7,18.6,0000.0,0004.70,0002.47,0002.07
2022-09-30 19:06:00,,0825.5,5.01,0.00,29.7,27.2,00.0,38.3,31.5,18.4,0000.0,0004.72,0002.50,0002.12
2022-09-30 19:07:00,,0825.6,4.99,0.00,29.6,26.2,00.0,38.2,31.4,18.7,0000.0,0004.84,0002.57,0002.18
2022-09-30 19:08:00,,0825.5,5.00,0.00,29.6,26.3,00.0,38.2,31.3,18.8,0000.0,0004.49,0002.63,0002.24
2022-09-30 19:09:00,,0825.5,5.00,0.00,29.5,26.5,00.0,38.2,31.2,19.1,0000.0,0004.34,0002.67,0002.29
2022-09-30 19:10:00,,0825.5,5.00,0.00,29.4,26.8,00.0,38.1,31.2,18.7,0000.0,0004.32,0002.68,0002.31
2022-09-30 19:11:00,,0825.5,5.00,0.00,29.4,27.2,00.0,38.1,31.2,19.0,0000.0,0004.39,0002.72,0002.32
2022-09-30 19:12:00,,0825.6,5.00,0.00,29.4,27.5,00.0,38.1,31.2,19.0,0000.0,0004.57,0002.73,0002.31
2022-09-30 19:13:00,,0825.5,4.99,0.00,29.4,27.7,00.0,38.1,31.3,18.8,0000.0,0004.64,0002.73,0002.30
2022-09-30 19:14:00,,0825.5,5.01,0.00,29.4,28.0,00.0,38.1,31.3,18.7,0000.0,0004.58,0002.71,0002.29
2022-09-30 19:15:00,,0825.5,4.99,0.00,29.5,28.1,00.0,38.1,31.4,18.6,0000.0,0004.03,0002.69,0002.27
2022-09-30 19:16:00,,0825.4,5.00,0.00,29.5,28.2,00.0,38.1,31.4,18.7,0000.0,0003.89,0002.70,0002.25
2022-09-30 19:17:00,,0825.5,5.00,0.00,29.5,28.4,00.0,38.2,31.5,18.7,0000.0,0003.92,0002.70,0002.25
2022-09-30 19:18:00,,0825.5,5.01,0.00,29.6,28.5,00.0,38.2,31.5,18.7,0000.0,0003.87,0002.69,0002.23
2022-09-30 19:19:00,,0825.5,4.99,0.00,29.6,28.6,00.0,38.2,31.6,19.1,0000.0,0003.85,0002.69,0002.25
2022-09-30 19:20:00,,0825.4,5.00,0.00,29.6,28.4,00.0,38.2,31.6,19.8,0000.0,0004.08,0002.83,0002.34
2022-09-30 19:21:00,,0825.5,5.00,0.00,29.6,27.1,00.0,38.2,31.5,19.9,0000.0,0004.99,0003.05,0002.45
2022-09-30 19:22:00,,0825.5,4.99,0.00,29.6,26.2,00.0,38.2,31.3,19.7,0000.0,0005.43,0003.20,0002.61
2022-09-30 19:23:00,,0825.5,4.99,0.00,29.5,26.3,00.0,38.1,31.3,20.0,0000.0,0005.70,0003.33,0002.79
2022-09-30 19:24:00,,0825.4,5.00,0.00,29.4,26.6,00.0,38.1,31.2,20.3,0000.0,0005.94,0003.44,0002.97
2022-09-30 19:25:00,,0825.5,4.99,0.00,29.4,26.9,00.0,38.1,31.2,20.3,0000.0,0006.59,0003.57,0003.13
2022-09-30 19:26:00,,0825.4,5.00,0.00,29.4,27.2,00.0,38.1,31.2,20.0,0000.0,0007.31,0003.70,0003.22
2022-09-30 19:27:00,,0825.4,5.01,0.00,29.4,27.5,00.0,38.1,31.2,20.1,0000.0,0007.61,0003.83,0003.31
2022-09-30 19:28:00,,0825.4,5.00,0.00,29.4,27.8,00.0,38.1,31.3,19.8,0000.0,0007.85,0003.95,0003.39
2022-09-30 19:29:00,,0825.4,4.99,0.00,29.4,28.0,00.0,38.1,31.3,19.7,0000.0,0008.36,0004.06,0003.47
2022-09-30 19:30:00,,0825.5,5.00,0.00,29.4,28.1,00.0,38.1,31.4,19.7,0000.0,0009.70,0004.18,0003.53
2022-09-30 19:31:00,,0825.4,5.00,0.00,29.5,28.2,00.0,38.1,31.4,19.4,0000.0,0009.88,0004.23,0003.55
2022-09-30 19:32:00,,0825.4,5.00,0.00,29.5,28.4,00.0,38.1,31.4,19.4,0000.0,0009.69,0004.19,0003.56
2022-09-30 19:33:00,,0825.4,5.01,0.00,29.5,28.5,00.0,38.1,31.5,19.5,0000.0,0010.09,0004.17,0003.55
2022-09-30 19:34:00,,0825.4,4.99,0.00,29.6,28.6,00.0,38.2,31.5,19.6,0000.0,0010.31,0004.17,0003.53
2022-09-30 19:35:00,,0825.4,5.00,0.00,29.6,28.7,00.0,38.2,31.6,19.6,0000.0,0010.61,0004.18,0003.52
2022-09-30 19:36:00,,0825.4,5.00,0.00,29.6,28.7,00.0,38.2,31.7,19.6,0000.0,0010.46,0004.16,0003.51
2022-09-30 19:37:00,,0825.4,5.00,0.00,29.7,27.9,00.0,38.2,31.6,19.7,0000.0,0010.17,0004.11,0003.49
2022-09-30 19:38:00,,0825.4,4.99,0.00,29.6,26.6,00.0,38.2,31.4,19.7,0000.0,0010.37,0004.12,0003.49
2022-09-30 19:39:00,,0825.4,4.99,0.00,29.6,26.2,00.0,38.2,31.4,19.8,0000.0,0010.67,0004.12,0003.48
2022-09-30 19:40:00,,0825.3,5.00,0.00,29.5,26.4,00.0,38.1,31.3,20.8,0000.0,0010.30,0004.11,0003.47
2022-09-30 19:41:00,,0825.3,5.00,0.00,29.4,26.7,00.0,38.1,31.2,21.2,0000.0,0009.22,0004.09,0003.47
2022-09-30 19:42:00,,0825.3,5.00,0.00,29.4,27.0,00.0,38.1,31.2,21.3,0000.0,0009.95,0004.13,0003.48
2022-09-30 19:43:00,,0825.2,5.01,0.00,29.4,27.4,00.0,38.1,31.2,21.2,0000.0,0010.80,0004.19,0003.47
2022-09-30 19:44:00,,0825.3,5.00,0.00,29.4,27.6,00.0,38.1,31.3,21.3,0000.0,0010.63,0004.21,0003.48
2022-09-30 19:45:00,,0825.2,4.99,0.00,29.4,27.9,00.0,38.1,31.3,21.3,0000.0,0010.51,0004.21,0003.48
2022-09-30 19:46:00,,0825.3,5.00,0.00,29.4,28.0,00.0,38.1,31.4,21.5,0000.0,0011.38,0004.23,0003.47
2022-09-30 19:47:00,,0825.2,5.00,0.00,29.5,28.2,00.0,38.1,31.4,21.5,0000.0,0011.84,0004.26,0003.47
2022-09-30 19:48:00,,0825.2,4.99,0.00,29.5,28.3,00.0,38.1,31.4,21.0,0000.0,0012.51,0004.27,0003.45
2022-09-30 19:49:00,,0825.2,4.99,0.00,29.5,28.4,00.0,38.2,31.5,20.7,0000.0,0012.17,0004.18,0003.39
2022-09-30 19:50:00,,0825.1,5.01,0.00,29.6,28.6,00.0,38.2,31.5,20.1,0000.0,0011.57,0004.07,0003.33
2022-09-30 19:51:00,,0825.1,4.99,0.00,29.6,28.6,00.0,38.2,31.6,20.1,0000.0,0011.47,0003.99,0003.26
2022-09-30 19:52:00,,0825.1,5.01,0.00,29.6,28.4,00.0,38.2,31.6,20.0,0000.0,0011.33,0003.90,0003.19
2022-09-30 19:53:00,,0825.0,5.00,0.00,29.6,27.2,00.0,38.2,31.5,20.2,0000.0,0010.54,0003.80,0003.13
2022-09-30 19:54:00,,0825.1,4.98,0.00,29.6,26.8,00.0,38.2,31.5,19.8,0000.0,0009.52,0003.67,0003.02
2022-09-30 19:55:00,,0825.0,5.01,0.00,29.6,27.0,00.0,38.2,31.4,19.8,0000.0,0008.78,0003.57,0002.92
2022-09-30 19:56:00,,0825.0,5.00,0.00,29.5,27.2,00.0,38.2,31.4,19.8,0000.0,0008.59,0003.47,0002.81
2022-09-30 19:57:00,,0825.0,5.00,0.00,29.5,27.5,00.0,38.2,31.4,19.8,0000.0,0008.24,0003.36,0002.72
2022-09-30 19:58:00,,0824.9,5.00,0.00,29.5,27.8,00.0,38.2,31.4,19.8,0000.0,0007.89,0003.25,0002.61
2022-09-30 19:59:00,,0825.0,4.99,0.00,29.5,28.0,00.0,38.2,31.4,19.9,0000.0,0008.05,0003.18,0002.52
